Find SCH-619

NORAD ID: 67271 Int'l Des: NNA 2025-313 Owner: STTS Country: RU operational
LEOCIRCULARRETROGRADESSO

Current View

Loading 3D Globe...

About SCH-619

Description loading...

Upcoming Passes

Passes for default location (London). Set your location on the main map for personalized predictions.

Altitude History

Loading altitude history...

Two-Line Element Set

1 67271U 25313Z 26149.21690734 .00006084 00000-0 27309-3 0 9993
2 67271 97.3948 223.9924 0016448 71.3142 288.9877 15.21423350 23052
Epoch: May 29, 2026 • Age: 22 hours

Current Status

Altitude 497.4 km
Velocity 7.63 km/s
Sub-Earth Point 41.30°N, 81.56°W
Launch Date Dec 28, 2025
Age 0.4 years
Type other

Technical Details

Classification Payload
Mass 3.00 kg
Dry Mass 3.00 kg
Total Mass 3.00 kg
Length 0.30 m
Diameter 0.10 m
Span 0.30 m
Shape Box
Manufacturer STTS
Bus Type Cubesat 3U
Phase Status In Orbit
Owner/State STTS/RU

Most Searched